Weather History for Murray, KY

Change the Weather History Date:

Thursday, June 19, 2014

  Actual Average (KPAH) Record (KPAH)
Temperature  
Mean Temperature 81 °F 77 °F  
Max Temperature 89 °F 87 °F 98 °F (1952)
Min Temperature 73 °F 66 °F 55 °F (1965)
Degree Days  
Heating Degree Days 0 0  
Month to date heating degree days 0  
Since 1 June heating degree days 0  
Since 1 July heating degree days 4128  
Cooling Degree Days 16 12  
Month to date cooling degree days 178  
Year to date cooling degree days 350  
Since 1 June cooling degree days 178  
Growing Degree Days 31 (Base 50)    
Moisture  
Dew Point 71 °F    
Average Humidity 70    
Maximum Humidity 88    
Minimum Humidity 49    
Precipitation  
Precipitation 0.00 in 0.14 in 1.76 in (1973)
Month to date precipitation 2.54  
Year to date precipitation 23.76  
Snow  
Snow 0.00 in 0.00 in 0.00 in (2002)
Month to date snowfall 0.0  
Since 1 June snowfall 0.0  
Since 1 July snowfall 9.1  
Snow Depth -    
Sea Level Pressure  
Sea Level Pressure 30.08 in    
Wind  
Wind Speed 7 mph (SW)    
Max Wind Speed 13 mph    
Max Gust Speed 17 mph    
Visibility 10 miles    
Events      
T = Trace of Precipitation, MM = Missing Value Source: NWS Daily Summary

Daily Weather History Graph

Daily Weather History Graph

Search for Another Location

Airport:

Trip Planner

Search our weather history database for the weather conditions in past years. The results will help you decide how hot, cold, wet, or windy it might be!

Date:

Astronomy

Jun. 19, 2014 Rise Set
Actual Time 5:34 AM CDT 8:15 PM CDT
Civil Twilight 5:04 AM CDT 8:45 PM CDT
Nautical Twilight 4:25 AM CDT 9:23 PM CDT
Astronomical Twilight 3:43 AM CDT 10:06 PM CDT
Moon 12:28 AM CDT (6/19) 12:54 PM CDT (6/19)
Length of Visible Light 15h 41m
Length of Day
14h 40m
Waning Gibbous, 51% of the Moon is Illuminated
Jun 19
Waning Gibbous
Jun 19
Last Quarter
Jun 27
New
Jul 5
First Quarter
Jul 12
Full

Hourly Weather History & Observations

Time (CDT) Temp. Heat Index Dew Point Humidity Pressure Visibility Wind Dir Wind Speed Gust Speed Precip Events Conditions
12:15 AM 77.0 °F - 71.6 °F 83% 30.05 in 10.0 mi SW 6.9 mph - N/A   Clear
12:35 AM 77.0 °F - 71.6 °F 83% 30.05 in 10.0 mi SW 6.9 mph - N/A   Clear
12:55 AM 77.0 °F - 71.6 °F 83% 30.06 in 10.0 mi SSW 5.8 mph - N/A   Clear
1:15 AM 77.0 °F - 69.8 °F 78% 30.05 in 10.0 mi SW 6.9 mph - N/A   Clear
1:35 AM 77.0 °F - 69.8 °F 78% 30.05 in 10.0 mi SSW 5.8 mph - N/A   Clear
1:55 AM 77.0 °F - 69.8 °F 78% 30.06 in 10.0 mi SSW 5.8 mph - N/A   Clear
2:15 AM 75.2 °F - 69.8 °F 83% 30.06 in 10.0 mi SSW 4.6 mph - N/A   Clear
2:35 AM 77.0 °F - 69.8 °F 78% 30.05 in 10.0 mi SW 6.9 mph - N/A   Clear
2:55 AM 75.2 °F - 69.8 °F 83% 30.05 in 10.0 mi SSW 5.8 mph - N/A   Clear
3:15 AM 75.2 °F - 69.8 °F 83% 30.05 in 10.0 mi SSW 5.8 mph - N/A   Clear
3:35 AM 75.2 °F - 69.8 °F 83% 30.05 in 10.0 mi SSW 5.8 mph - N/A   Clear
3:55 AM 75.2 °F - 69.8 °F 83% 30.06 in 10.0 mi SSW 5.8 mph - N/A   Clear
4:15 AM 75.2 °F - 69.8 °F 83% 30.06 in 10.0 mi South 6.9 mph - N/A   Clear
4:35 AM 73.4 °F - 69.8 °F 88% 30.07 in 10.0 mi SSW 6.9 mph - N/A   Partly Cloudy
5:15 AM 73.4 °F - 68.0 °F 83% 30.07 in 10.0 mi SSW 6.9 mph - N/A   Mostly Cloudy
5:35 AM 73.4 °F - 69.8 °F 88% 30.08 in 10.0 mi SSW 6.9 mph - N/A   Clear
5:55 AM 73.4 °F - 69.8 °F 88% 30.08 in 10.0 mi South 5.8 mph - N/A   Clear
6:15 AM 73.4 °F - 69.8 °F 88% 30.09 in 10.0 mi SSW 5.8 mph - N/A   Clear
6:35 AM 73.4 °F - 69.8 °F 88% 30.10 in 10.0 mi SSW 6.9 mph - N/A   Clear
6:55 AM 75.2 °F - 69.8 °F 83% 30.11 in 10.0 mi SSW 6.9 mph - N/A   Clear
7:15 AM 77.0 °F - 69.8 °F 78% 30.12 in 10.0 mi SSW 5.8 mph - N/A   Clear
7:35 AM 77.0 °F - 71.6 °F 83% 30.13 in 10.0 mi SW 5.8 mph - N/A   Clear
7:55 AM 80.6 °F 84.6 °F 71.6 °F 74% 30.14 in 10.0 mi WSW 8.1 mph - N/A   Clear
8:15 AM 80.6 °F 84.6 °F 71.6 °F 74% 30.16 in 10.0 mi SW 6.9 mph - N/A   Clear
8:35 AM 80.6 °F 84.6 °F 71.6 °F 74% 30.16 in 10.0 mi WSW 9.2 mph - N/A   Clear
8:55 AM 82.4 °F 87.2 °F 71.6 °F 70% 30.15 in 10.0 mi WSW 10.4 mph - N/A   Clear
9:15 AM 82.4 °F 87.2 °F 71.6 °F 70% 30.15 in 10.0 mi WSW 12.7 mph - N/A   Clear
10:15 AM 84.2 °F 90.9 °F 73.4 °F 70% 30.15 in 10.0 mi WSW 10.4 mph - N/A   Clear
10:35 AM 86.0 °F 93.4 °F 73.4 °F 66% 30.15 in 10.0 mi WSW 11.5 mph 17.3 mph N/A   Clear
10:55 AM 86.0 °F 91.8 °F 71.6 °F 62% 30.14 in 10.0 mi West 9.2 mph - N/A   Scattered Clouds
11:15 AM 86.0 °F 91.8 °F 71.6 °F 62% 30.14 in 10.0 mi WSW 10.4 mph - N/A   Partly Cloudy
11:35 AM 86.0 °F 91.8 °F 71.6 °F 62% 30.13 in 10.0 mi WSW 9.2 mph - N/A   Partly Cloudy
11:55 AM 86.0 °F 91.8 °F 71.6 °F 62% 30.13 in 10.0 mi WSW 10.4 mph - N/A   Partly Cloudy
12:15 PM 87.8 °F 93.8 °F 71.6 °F 58% 30.12 in 10.0 mi West 9.2 mph - N/A   Partly Cloudy
12:35 PM 87.8 °F 93.8 °F 71.6 °F 58% 30.11 in 10.0 mi SW 6.9 mph - N/A   Partly Cloudy
12:55 PM 89.6 °F 96.2 °F 71.6 °F 55% 30.10 in 10.0 mi SW 10.4 mph - N/A   Scattered Clouds
1:15 PM 89.6 °F 94.7 °F 69.8 °F 52% 30.10 in 10.0 mi WSW 10.4 mph - N/A   Partly Cloudy
1:35 PM 89.6 °F 96.2 °F 71.6 °F 55% 30.09 in 10.0 mi West 10.4 mph - N/A   Clear
1:55 PM 89.6 °F 96.2 °F 71.6 °F 55% 30.09 in 10.0 mi WSW 11.5 mph - N/A   Partly Cloudy
2:15 PM 89.6 °F 96.2 °F 71.6 °F 55% 30.08 in 10.0 mi SW 8.1 mph - N/A   Partly Cloudy
2:35 PM 89.6 °F 93.4 °F 68.0 °F 49% 30.08 in 10.0 mi WSW 9.2 mph - N/A   Clear
2:55 PM 89.6 °F 96.2 °F 71.6 °F 55% 30.08 in 10.0 mi SSW 6.9 mph - N/A   Partly Cloudy
3:15 PM 89.6 °F 94.7 °F 69.8 °F 52% 30.08 in 10.0 mi WSW 6.9 mph - N/A   Partly Cloudy
3:35 PM 89.6 °F 96.2 °F 71.6 °F 55% 30.07 in 10.0 mi SSW 6.9 mph - N/A   Clear
3:55 PM 89.6 °F 96.2 °F 71.6 °F 55% 30.07 in 10.0 mi SW 5.8 mph - N/A   Partly Cloudy
4:15 PM 89.6 °F 96.2 °F 71.6 °F 55% 30.06 in 10.0 mi SSW 6.9 mph - N/A   Scattered Clouds
4:35 PM 87.8 °F 93.8 °F 71.6 °F 58% 30.06 in 10.0 mi SW 8.1 mph - N/A   Scattered Clouds
4:55 PM 89.6 °F 96.2 °F 71.6 °F 55% 30.05 in 10.0 mi WSW 8.1 mph - N/A   Partly Cloudy
5:15 PM 87.8 °F 93.8 °F 71.6 °F 58% 30.04 in 10.0 mi SW 6.9 mph - N/A   Partly Cloudy
5:55 PM 87.8 °F 92.6 °F 69.8 °F 55% 30.03 in 10.0 mi SW 8.1 mph - N/A   Scattered Clouds
6:15 PM 87.8 °F 92.6 °F 69.8 °F 55% 30.03 in 10.0 mi SW 8.1 mph - N/A   Clear
6:35 PM 87.8 °F 92.6 °F 69.8 °F 55% 30.04 in 10.0 mi SW 5.8 mph - N/A   Clear
6:55 PM 86.0 °F 91.8 °F 71.6 °F 62% 30.04 in 10.0 mi SW 4.6 mph - N/A   Clear
7:15 PM 86.0 °F 91.8 °F 71.6 °F 62% 30.05 in 10.0 mi SSW 4.6 mph - N/A   Clear
7:35 PM 84.2 °F 88.4 °F 69.8 °F 62% 30.05 in 10.0 mi SSW 4.6 mph - N/A   Clear
7:55 PM 80.6 °F 84.6 °F 71.6 °F 74% 30.05 in 10.0 mi South 4.6 mph - N/A   Clear
8:15 PM 80.6 °F 84.6 °F 71.6 °F 74% 30.04 in 10.0 mi South 4.6 mph - N/A   Clear
8:35 PM 80.6 °F 84.6 °F 71.6 °F 74% 30.05 in 10.0 mi South 4.6 mph - N/A   Clear
8:55 PM 80.6 °F 84.6 °F 71.6 °F 74% 30.05 in 10.0 mi South 3.5 mph - N/A   Partly Cloudy
9:15 PM 80.6 °F 84.6 °F 71.6 °F 74% 30.05 in 10.0 mi South 5.8 mph - N/A   Partly Cloudy
9:35 PM 80.6 °F 84.6 °F 71.6 °F 74% 30.06 in 10.0 mi South 5.8 mph - N/A   Mostly Cloudy
9:55 PM 80.6 °F 84.6 °F 71.6 °F 74% 30.06 in 10.0 mi South 4.6 mph - N/A   Mostly Cloudy
10:15 PM 78.8 °F - 71.6 °F 78% 30.07 in 10.0 mi SSW 4.6 mph - N/A   Scattered Clouds
10:35 PM 78.8 °F - 71.6 °F 78% 30.07 in 10.0 mi SSW 6.9 mph - N/A   Partly Cloudy
10:55 PM 80.6 °F 84.6 °F 71.6 °F 74% 30.07 in 10.0 mi SSW 8.1 mph - N/A   Partly Cloudy
11:15 PM 78.8 °F - 71.6 °F 78% 30.07 in 10.0 mi SSW 5.8 mph - N/A   Partly Cloudy
11:35 PM 78.8 °F - 71.6 °F 78% 30.07 in 10.0 mi SSW 5.8 mph - N/A   Partly Cloudy
11:55 PM 77.0 °F - 71.6 °F 83% 30.07 in 10.0 mi SSW 5.8 mph - N/A   Scattered Clouds